TIANMU-1 09

Last updated on Sat Feb 08 2025 00:02:20 GMT+0000 (Coordinated Universal Time)

1 57401U 23101C 25038.76219396 .00009993 00000+0 43156-3 0 9996 2 57401 97.3256 95.2736 0007874 87.9602 272.2537 15.22664694 86200
UTC large
Height (km)
Speed (km/s)
/
Latitude / Longitude
Inclination (degrees)
Orbital Period (minutes)
Azimuth
Elevation
Range (km)
Doppler Factor

Next 0 passes for location: London (51.5072 / 0.1276)

Sorry there are no passes over London.